Year,Month,Day,Hour,Minute,Value (Times are PST for windgust in km/hr)
2015,11,18,00,00,11.30
2015,11,18,00,01,16.10
2015,11,18,00,02,16.10
2015,11,18,00,03,16.10
2015,11,18,00,04,19.30
2015,11,18,00,05,14.50
2015,11,18,00,06,12.90
2015,11,18,00,07,12.90
2015,11,18,00,08,11.30
2015,11,18,00,09,12.90
2015,11,18,00,10,14.50
2015,11,18,00,11,8.10
2015,11,18,00,12,8.10
2015,11,18,00,13,8.10
2015,11,18,00,14,11.30
2015,11,18,00,15,11.30
2015,11,18,00,16,8.10
2015,11,18,00,17,8.10
2015,11,18,00,18,9.60
2015,11,18,00,19,9.60
2015,11,18,00,20,8.10
2015,11,18,00,21,12.90
2015,11,18,00,22,8.10
2015,11,18,00,23,9.60
2015,11,18,00,24,9.60
2015,11,18,00,25,9.60
2015,11,18,00,26,12.90
2015,11,18,00,27,11.30
2015,11,18,00,28,8.10
2015,11,18,00,29,9.60
2015,11,18,00,30,9.60
2015,11,18,00,31,9.60
2015,11,18,00,32,11.30
2015,11,18,00,33,11.30
2015,11,18,00,34,9.60
2015,11,18,00,35,11.30
2015,11,18,00,36,11.30
2015,11,18,00,37,11.30
2015,11,18,00,38,9.60
2015,11,18,00,39,14.50
2015,11,18,00,40,9.60
2015,11,18,00,41,11.30
2015,11,18,00,42,14.50
2015,11,18,00,43,14.50
2015,11,18,00,44,12.90
2015,11,18,00,45,12.90
2015,11,18,00,46,12.90
2015,11,18,00,47,11.30
2015,11,18,00,48,14.50
2015,11,18,00,49,12.90
2015,11,18,00,50,11.30
2015,11,18,00,51,11.30
2015,11,18,00,52,8.10
2015,11,18,00,53,12.90
2015,11,18,00,54,9.60
2015,11,18,00,55,11.30
2015,11,18,00,56,11.30
2015,11,18,00,57,9.60
2015,11,18,00,58,14.50
2015,11,18,00,59,9.60
2015,11,18,01,00,9.60
2015,11,18,01,01,9.60
2015,11,18,01,02,12.90
2015,11,18,01,03,12.90
2015,11,18,01,04,12.90
2015,11,18,01,05,11.30
2015,11,18,01,06,9.60
2015,11,18,01,07,12.90
2015,11,18,01,08,11.30
2015,11,18,01,09,9.60
2015,11,18,01,10,9.60
2015,11,18,01,11,8.10
2015,11,18,01,12,8.10
2015,11,18,01,13,9.60
2015,11,18,01,14,9.60
2015,11,18,01,15,11.30
2015,11,18,01,16,8.10
2015,11,18,01,17,8.10
2015,11,18,01,18,11.30
2015,11,18,01,19,9.60
2015,11,18,01,20,6.40
2015,11,18,01,21,6.40
2015,11,18,01,22,12.90
2015,11,18,01,23,3.20
2015,11,18,01,25,6.40
2015,11,18,01,26,6.40
2015,11,18,01,27,6.40
2015,11,18,01,28,6.40
2015,11,18,01,29,8.10
2015,11,18,01,30,8.10
2015,11,18,01,31,8.10
2015,11,18,01,32,8.10
2015,11,18,01,33,6.40
2015,11,18,01,34,6.40
2015,11,18,01,35,8.10
2015,11,18,01,36,4.80
2015,11,18,01,37,8.10
2015,11,18,01,38,9.60
2015,11,18,01,39,3.20
2015,11,18,01,40,9.60
2015,11,18,01,41,6.40
2015,11,18,01,42,4.80
2015,11,18,01,43,4.80
2015,11,18,01,44,3.20
2015,11,18,01,45,4.80
2015,11,18,01,46,3.20
2015,11,18,01,47,1.60
2015,11,18,01,48,6.40
2015,11,18,01,49,4.80
2015,11,18,01,50,3.20
2015,11,18,01,51,3.20
2015,11,18,01,52,1.60
2015,11,18,01,53,1.60
2015,11,18,01,54,3.20
2015,11,18,01,55,1.60
2015,11,18,01,56,1.60
2015,11,18,01,57,1.60
2015,11,18,01,58,1.60
2015,11,18,01,59,3.20
2015,11,18,02,00,4.80
2015,11,18,02,01,3.20
2015,11,18,02,02,4.80
2015,11,18,02,03,4.80
2015,11,18,02,04,6.40
2015,11,18,02,05,9.60
2015,11,18,02,06,6.40
2015,11,18,02,07,4.80
2015,11,18,02,08,4.80
2015,11,18,02,09,8.10
2015,11,18,02,10,8.10
2015,11,18,02,11,6.40
2015,11,18,02,12,9.60
2015,11,18,02,13,9.60
2015,11,18,02,14,14.50
2015,11,18,02,15,9.60
2015,11,18,02,16,9.60
2015,11,18,02,17,9.60
2015,11,18,02,18,8.10
2015,11,18,02,19,8.10
2015,11,18,02,20,6.40
2015,11,18,02,21,12.90
2015,11,18,02,22,11.30
2015,11,18,02,23,14.50
2015,11,18,02,24,8.10
2015,11,18,02,25,12.90
2015,11,18,02,26,11.30
2015,11,18,02,27,11.30
2015,11,18,02,28,9.60
2015,11,18,02,29,9.60
2015,11,18,02,30,11.30
2015,11,18,02,31,12.90
2015,11,18,02,32,9.60
2015,11,18,02,33,11.30
2015,11,18,02,34,9.60
2015,11,18,02,35,12.90
2015,11,18,02,36,9.60
2015,11,18,02,37,14.50
2015,11,18,02,38,11.30
2015,11,18,02,39,11.30
2015,11,18,02,40,14.50
2015,11,18,02,41,11.30
2015,11,18,02,42,14.50
2015,11,18,02,43,8.10
2015,11,18,02,44,12.90
2015,11,18,02,45,14.50
2015,11,18,02,46,14.50
2015,11,18,02,47,11.30
2015,11,18,02,48,9.60
2015,11,18,02,49,11.30
2015,11,18,02,50,16.10
2015,11,18,02,51,12.90
2015,11,18,02,52,16.10
2015,11,18,02,53,11.30
2015,11,18,02,54,12.90
2015,11,18,02,55,11.30
2015,11,18,02,56,12.90
2015,11,18,02,57,11.30
2015,11,18,02,58,14.50
2015,11,18,02,59,11.30
2015,11,18,03,00,11.30
2015,11,18,03,01,8.10
2015,11,18,03,02,11.30
2015,11,18,03,03,16.10
2015,11,18,03,04,12.90
2015,11,18,03,05,9.60
2015,11,18,03,06,14.50
2015,11,18,03,07,12.90
2015,11,18,03,08,12.90
2015,11,18,03,09,8.10
2015,11,18,03,10,9.60
2015,11,18,03,11,12.90
2015,11,18,03,12,11.30
2015,11,18,03,13,14.50
2015,11,18,03,14,12.90
2015,11,18,03,15,11.30
2015,11,18,03,16,8.10
2015,11,18,03,17,11.30
2015,11,18,03,18,12.90
2015,11,18,03,19,9.60
2015,11,18,03,20,9.60
2015,11,18,03,21,19.30
2015,11,18,03,22,17.70
2015,11,18,03,23,17.70
2015,11,18,03,24,12.90
2015,11,18,03,25,11.30
2015,11,18,03,26,11.30
2015,11,18,03,27,9.60
2015,11,18,03,28,11.30
2015,11,18,03,29,16.10
2015,11,18,03,30,9.60
2015,11,18,03,31,12.90
2015,11,18,03,32,11.30
2015,11,18,03,33,12.90
2015,11,18,03,34,14.50
2015,11,18,03,35,11.30
2015,11,18,03,36,14.50
2015,11,18,03,37,14.50
2015,11,18,03,38,19.30
2015,11,18,03,39,16.10
2015,11,18,03,40,12.90
2015,11,18,03,41,14.50
2015,11,18,03,42,16.10
2015,11,18,03,43,19.30
2015,11,18,03,44,19.30
2015,11,18,03,45,14.50
2015,11,18,03,46,20.90
2015,11,18,03,47,14.50
2015,11,18,03,48,11.30
2015,11,18,03,49,12.90
2015,11,18,03,50,12.90
2015,11,18,03,51,11.30
2015,11,18,03,52,12.90
2015,11,18,03,53,14.50
2015,11,18,03,54,16.10
2015,11,18,03,55,11.30
2015,11,18,03,56,14.50
2015,11,18,03,57,11.30
2015,11,18,03,58,11.30
2015,11,18,03,59,16.10
2015,11,18,04,00,12.90
2015,11,18,04,01,9.60
2015,11,18,04,02,11.30
2015,11,18,04,03,8.10
2015,11,18,04,04,11.30
2015,11,18,04,05,9.60
2015,11,18,04,06,11.30
2015,11,18,04,07,9.60
2015,11,18,04,08,8.10
2015,11,18,04,09,11.30
2015,11,18,04,10,12.90
2015,11,18,04,11,11.30
2015,11,18,04,12,14.50
2015,11,18,04,13,14.50
2015,11,18,04,14,12.90
2015,11,18,04,15,12.90
2015,11,18,04,16,11.30
2015,11,18,04,17,8.10
2015,11,18,04,18,12.90
2015,11,18,04,19,11.30
2015,11,18,04,20,8.10
2015,11,18,04,21,9.60
2015,11,18,04,22,8.10
2015,11,18,04,23,9.60
2015,11,18,04,24,14.50
2015,11,18,04,25,14.50
2015,11,18,04,26,8.10
2015,11,18,04,27,8.10
2015,11,18,04,28,12.90
2015,11,18,04,29,9.60
2015,11,18,04,30,14.50
2015,11,18,04,31,12.90
2015,11,18,04,32,14.50
2015,11,18,04,33,11.30
2015,11,18,04,34,8.10
2015,11,18,04,35,11.30
2015,11,18,04,36,14.50
2015,11,18,04,37,17.70
2015,11,18,04,38,9.60
2015,11,18,04,39,9.60
2015,11,18,04,40,8.10
2015,11,18,04,41,8.10
2015,11,18,04,42,6.40
2015,11,18,04,43,11.30
2015,11,18,04,44,6.40
2015,11,18,04,45,11.30
2015,11,18,04,46,6.40
2015,11,18,04,47,6.40
2015,11,18,04,48,6.40
2015,11,18,04,49,8.10
2015,11,18,04,50,9.60
2015,11,18,04,51,12.90
2015,11,18,04,52,8.10
2015,11,18,04,53,11.30
2015,11,18,04,54,9.60
2015,11,18,04,55,9.60
2015,11,18,04,56,12.90
2015,11,18,04,57,11.30
2015,11,18,04,58,9.60
2015,11,18,04,59,9.60
2015,11,18,05,00,8.10
2015,11,18,05,01,11.30
2015,11,18,05,02,9.60
2015,11,18,05,03,14.50
2015,11,18,05,04,14.50
2015,11,18,05,05,9.60
2015,11,18,05,06,9.60
2015,11,18,05,07,6.40
2015,11,18,05,08,11.30
2015,11,18,05,09,8.10
2015,11,18,05,10,8.10
2015,11,18,05,11,8.10
2015,11,18,05,12,6.40
2015,11,18,05,13,9.60
2015,11,18,05,14,11.30
2015,11,18,05,15,8.10
2015,11,18,05,16,9.60
2015,11,18,05,17,9.60
2015,11,18,05,18,6.40
2015,11,18,05,19,11.30
2015,11,18,05,20,8.10
2015,11,18,05,21,8.10
2015,11,18,05,22,6.40
2015,11,18,05,23,6.40
2015,11,18,05,24,8.10
2015,11,18,05,25,8.10
2015,11,18,05,26,8.10
2015,11,18,05,27,8.10
2015,11,18,05,28,9.60
2015,11,18,05,29,16.10
2015,11,18,05,30,8.10
2015,11,18,05,31,8.10
2015,11,18,05,32,11.30
2015,11,18,05,33,8.10
2015,11,18,05,34,8.10
2015,11,18,05,35,8.10
2015,11,18,05,36,11.30
2015,11,18,05,37,9.60
2015,11,18,05,38,9.60
2015,11,18,05,39,11.30
2015,11,18,05,40,12.90
2015,11,18,05,41,12.90
2015,11,18,05,42,11.30
2015,11,18,05,43,11.30
2015,11,18,05,44,9.60
2015,11,18,05,45,9.60
2015,11,18,05,46,8.10
2015,11,18,05,47,9.60
2015,11,18,05,48,11.30
2015,11,18,05,49,9.60
2015,11,18,05,50,8.10
2015,11,18,05,51,8.10
2015,11,18,05,52,4.80
2015,11,18,05,53,6.40
2015,11,18,05,54,9.60
2015,11,18,05,55,8.10
2015,11,18,05,56,8.10
2015,11,18,05,57,6.40
2015,11,18,05,58,3.20
2015,11,18,05,59,4.80
2015,11,18,06,00,3.20
2015,11,18,06,01,1.60
2015,11,18,06,02,4.80
2015,11,18,06,03,8.10
2015,11,18,06,04,4.80
2015,11,18,06,05,6.40
2015,11,18,06,06,8.10
2015,11,18,06,07,9.60
2015,11,18,06,08,8.10
2015,11,18,06,09,8.10
2015,11,18,06,10,4.80
2015,11,18,06,11,6.40
2015,11,18,06,12,6.40
2015,11,18,06,13,4.80
2015,11,18,06,14,4.80
2015,11,18,06,15,8.10
2015,11,18,06,16,4.80
2015,11,18,06,17,8.10
2015,11,18,06,18,4.80
2015,11,18,06,19,6.40
2015,11,18,06,20,9.60
2015,11,18,06,21,4.80
2015,11,18,06,22,8.10
2015,11,18,06,23,9.60
2015,11,18,06,24,6.40
2015,11,18,06,25,8.10
2015,11,18,06,26,11.30
2015,11,18,06,27,9.60
2015,11,18,06,28,11.30
2015,11,18,06,29,9.60
2015,11,18,06,30,11.30
2015,11,18,06,31,14.50
2015,11,18,06,32,12.90
2015,11,18,06,33,9.60
2015,11,18,06,34,12.90
2015,11,18,06,35,12.90
2015,11,18,06,36,11.30
2015,11,18,06,37,12.90
2015,11,18,06,38,16.10
2015,11,18,06,39,9.60
2015,11,18,06,40,11.30
2015,11,18,06,41,14.50
2015,11,18,06,42,12.90
2015,11,18,06,43,6.40
2015,11,18,06,44,8.10
2015,11,18,06,45,9.60
2015,11,18,06,46,9.60
2015,11,18,06,47,6.40
2015,11,18,06,48,4.80
2015,11,18,06,49,6.40
2015,11,18,06,50,4.80
2015,11,18,06,51,4.80
2015,11,18,06,52,3.20
2015,11,18,06,53,6.40
2015,11,18,06,54,6.40
2015,11,18,06,55,8.10
2015,11,18,06,56,6.40
2015,11,18,06,57,6.40
2015,11,18,06,58,6.40
2015,11,18,06,59,6.40
2015,11,18,07,00,6.40
2015,11,18,07,01,4.80
2015,11,18,07,02,4.80
2015,11,18,07,03,6.40
2015,11,18,07,04,6.40
2015,11,18,07,05,8.10
2015,11,18,07,06,8.10
2015,11,18,07,07,4.80
2015,11,18,07,08,3.20
2015,11,18,07,09,6.40
2015,11,18,07,10,4.80
2015,11,18,07,11,6.40
2015,11,18,07,12,4.80
2015,11,18,07,13,4.80
2015,11,18,07,14,4.80
2015,11,18,07,15,4.80
2015,11,18,07,16,6.40
2015,11,18,07,17,4.80
2015,11,18,07,18,3.20
2015,11,18,07,20,4.80
2015,11,18,07,21,4.80
2015,11,18,07,22,4.80
2015,11,18,07,23,1.60
2015,11,18,07,26,3.20
2015,11,18,07,27,4.80
2015,11,18,07,28,4.80
2015,11,18,07,29,4.80
2015,11,18,07,30,3.20
2015,11,18,07,33,1.60
2015,11,18,07,36,6.40
2015,11,18,07,37,6.40
2015,11,18,07,38,4.80
2015,11,18,07,39,4.80
2015,11,18,07,40,3.20
2015,11,18,07,41,6.40
2015,11,18,07,42,4.80
2015,11,18,07,43,4.80
2015,11,18,07,44,6.40
2015,11,18,07,45,4.80
2015,11,18,07,46,6.40
2015,11,18,07,47,6.40
2015,11,18,07,48,1.60
2015,11,18,07,49,8.10
2015,11,18,07,50,9.60
2015,11,18,07,51,8.10
2015,11,18,07,52,9.60
2015,11,18,07,53,8.10
2015,11,18,07,54,9.60
2015,11,18,07,55,9.60
2015,11,18,07,56,9.60
2015,11,18,07,57,8.10
2015,11,18,07,58,9.60
2015,11,18,07,59,8.10
2015,11,18,08,00,9.60
2015,11,18,08,01,8.10
2015,11,18,08,02,6.40
2015,11,18,08,03,8.10
2015,11,18,08,04,11.30
2015,11,18,08,05,12.90
2015,11,18,08,06,9.60
2015,11,18,08,07,8.10
2015,11,18,08,08,9.60
2015,11,18,08,09,9.60
2015,11,18,08,10,8.10
2015,11,18,08,11,8.10
2015,11,18,08,12,11.30
2015,11,18,08,13,11.30
2015,11,18,08,14,11.30
2015,11,18,08,15,11.30
2015,11,18,08,16,14.50
2015,11,18,08,17,11.30
2015,11,18,08,18,12.90
2015,11,18,08,19,12.90
2015,11,18,08,20,12.90
2015,11,18,08,21,11.30
2015,11,18,08,22,9.60
2015,11,18,08,23,8.10
2015,11,18,08,24,6.40
2015,11,18,08,25,11.30
2015,11,18,08,26,8.10
2015,11,18,08,27,9.60
2015,11,18,08,28,9.60
2015,11,18,08,29,9.60
2015,11,18,08,30,11.30
2015,11,18,08,31,14.50
2015,11,18,08,32,9.60
2015,11,18,08,33,9.60
2015,11,18,08,34,12.90
2015,11,18,08,35,14.50
2015,11,18,08,36,11.30
2015,11,18,08,37,8.10
2015,11,18,08,38,12.90
2015,11,18,08,39,11.30
2015,11,18,08,40,9.60
2015,11,18,08,41,11.30
2015,11,18,08,42,14.50
2015,11,18,08,43,16.10
2015,11,18,08,44,11.30
2015,11,18,08,45,14.50
2015,11,18,08,46,11.30
2015,11,18,08,47,12.90
2015,11,18,08,48,11.30
2015,11,18,08,49,12.90
2015,11,18,08,50,9.60
2015,11,18,08,51,11.30
2015,11,18,08,52,12.90
2015,11,18,08,53,12.90
2015,11,18,08,54,11.30
2015,11,18,08,55,12.90
2015,11,18,08,56,11.30
2015,11,18,08,57,12.90
2015,11,18,08,58,11.30
2015,11,18,08,59,12.90
2015,11,18,09,00,14.50
2015,11,18,09,01,11.30
2015,11,18,09,02,11.30
2015,11,18,09,03,12.90
2015,11,18,09,04,12.90
2015,11,18,09,05,12.90
2015,11,18,09,06,12.90
2015,11,18,09,07,16.10
2015,11,18,09,08,11.30
2015,11,18,09,09,12.90
2015,11,18,09,10,8.10
2015,11,18,09,11,9.60
2015,11,18,09,12,9.60
2015,11,18,09,13,9.60
2015,11,18,09,14,8.10
2015,11,18,09,15,11.30
2015,11,18,09,16,8.10
2015,11,18,09,17,6.40
2015,11,18,09,18,6.40
2015,11,18,09,19,6.40
2015,11,18,09,20,8.10
2015,11,18,09,21,9.60
2015,11,18,09,22,9.60
2015,11,18,09,23,6.40
2015,11,18,09,24,8.10
2015,11,18,09,25,11.30
2015,11,18,09,26,11.30
2015,11,18,09,27,12.90
2015,11,18,09,28,9.60
2015,11,18,09,29,9.60
2015,11,18,09,30,9.60
2015,11,18,09,31,11.30
2015,11,18,09,32,14.50
2015,11,18,09,33,12.90
2015,11,18,09,34,11.30
2015,11,18,09,35,6.40
2015,11,18,09,36,6.40
2015,11,18,09,37,9.60
2015,11,18,09,38,11.30
2015,11,18,09,39,11.30
2015,11,18,09,40,8.10
2015,11,18,09,41,6.40
2015,11,18,09,42,4.80
2015,11,18,09,43,3.20
2015,11,18,09,44,14.50
2015,11,18,09,45,9.60
2015,11,18,09,46,4.80
2015,11,18,09,47,4.80
2015,11,18,09,48,4.80
2015,11,18,09,49,3.20
2015,11,18,09,50,4.80
2015,11,18,09,51,11.30
2015,11,18,09,52,6.40
2015,11,18,09,53,9.60
2015,11,18,09,54,8.10
2015,11,18,09,55,3.20
2015,11,18,09,56,4.80
2015,11,18,09,57,4.80
2015,11,18,09,58,8.10
2015,11,18,09,59,3.20
2015,11,18,10,00,1.60
2015,11,18,10,01,4.80
2015,11,18,10,02,9.60
2015,11,18,10,03,8.10
2015,11,18,10,04,9.60
2015,11,18,10,05,9.60
2015,11,18,10,06,6.40
2015,11,18,10,07,12.90
2015,11,18,10,08,12.90
2015,11,18,10,09,8.10
2015,11,18,10,10,14.50
2015,11,18,10,11,9.60
2015,11,18,10,12,6.40
2015,11,18,10,13,8.10
2015,11,18,10,14,8.10
2015,11,18,10,15,12.90
2015,11,18,10,16,12.90
2015,11,18,10,17,12.90
2015,11,18,10,18,8.10
2015,11,18,10,19,11.30
2015,11,18,10,20,11.30
2015,11,18,10,21,9.60
2015,11,18,10,22,16.10
2015,11,18,10,23,9.60
2015,11,18,10,24,11.30
2015,11,18,10,25,14.50
2015,11,18,10,26,9.60
2015,11,18,10,27,6.40
2015,11,18,10,28,12.90
2015,11,18,10,29,11.30
2015,11,18,10,30,1.60
2015,11,18,10,31,12.90
2015,11,18,10,32,11.30
2015,11,18,10,33,6.40
2015,11,18,10,34,8.10
2015,11,18,10,35,16.10
2015,11,18,10,36,14.50
2015,11,18,10,37,8.10
2015,11,18,10,38,9.60
2015,11,18,10,39,9.60
2015,11,18,10,40,12.90
2015,11,18,10,41,11.30
2015,11,18,10,42,11.30
2015,11,18,10,43,16.10
2015,11,18,10,44,9.60
2015,11,18,10,45,11.30
2015,11,18,10,46,9.60
2015,11,18,10,47,9.60
2015,11,18,10,48,8.10
2015,11,18,10,49,11.30
2015,11,18,10,50,11.30
2015,11,18,10,51,12.90
2015,11,18,10,52,14.50
2015,11,18,10,53,8.10
2015,11,18,10,54,14.50
2015,11,18,10,55,14.50
2015,11,18,10,56,14.50
2015,11,18,10,57,17.70
2015,11,18,10,58,16.10
2015,11,18,10,59,12.90
2015,11,18,11,00,14.50
2015,11,18,11,01,12.90
2015,11,18,11,02,11.30
2015,11,18,11,03,12.90
2015,11,18,11,04,16.10
2015,11,18,11,05,11.30
2015,11,18,11,06,9.60
2015,11,18,11,07,9.60
2015,11,18,11,08,12.90
2015,11,18,11,09,9.60
2015,11,18,11,10,9.60
2015,11,18,11,11,12.90
2015,11,18,11,12,9.60
2015,11,18,11,13,9.60
2015,11,18,11,14,8.10
2015,11,18,11,15,3.20
2015,11,18,11,16,8.10
2015,11,18,11,17,11.30
2015,11,18,11,18,4.80
2015,11,18,11,19,6.40
2015,11,18,11,20,8.10
2015,11,18,11,21,11.30
2015,11,18,11,22,11.30
2015,11,18,11,23,11.30
2015,11,18,11,24,9.60
2015,11,18,11,25,9.60
2015,11,18,11,26,8.10
2015,11,18,11,27,8.10
2015,11,18,11,28,16.10
2015,11,18,11,29,12.90
2015,11,18,11,30,9.60
2015,11,18,11,31,6.40
2015,11,18,11,32,8.10
2015,11,18,11,33,8.10
2015,11,18,11,34,11.30
2015,11,18,11,35,1.60
2015,11,18,11,36,12.90
2015,11,18,11,37,9.60
2015,11,18,11,38,4.80
2015,11,18,11,39,4.80
2015,11,18,11,40,14.50
2015,11,18,11,41,11.30
2015,11,18,11,42,11.30
2015,11,18,11,43,1.60
2015,11,18,11,44,8.10
2015,11,18,11,45,9.60
2015,11,18,11,46,11.30
2015,11,18,11,47,12.90
2015,11,18,11,48,11.30
2015,11,18,11,49,12.90
2015,11,18,11,50,11.30
2015,11,18,11,51,11.30
2015,11,18,11,52,9.60
2015,11,18,11,53,8.10
2015,11,18,11,54,6.40
2015,11,18,11,55,12.90
2015,11,18,11,56,14.50
2015,11,18,11,57,9.60
2015,11,18,11,58,14.50
2015,11,18,11,59,9.60
2015,11,18,12,00,9.60
2015,11,18,12,01,12.90
2015,11,18,12,02,8.10
2015,11,18,12,03,11.30
2015,11,18,12,04,4.80
2015,11,18,12,05,1.60
2015,11,18,12,06,12.90
2015,11,18,12,07,14.50
2015,11,18,12,08,16.10
2015,11,18,12,09,11.30
2015,11,18,12,10,3.20
2015,11,18,12,11,6.40
2015,11,18,12,12,11.30
2015,11,18,12,13,8.10
2015,11,18,12,14,11.30
2015,11,18,12,15,4.80
2015,11,18,12,16,8.10
2015,11,18,12,17,4.80
2015,11,18,12,18,8.10
2015,11,18,12,19,8.10
2015,11,18,12,20,9.60
2015,11,18,12,21,9.60
2015,11,18,12,22,17.70
2015,11,18,12,23,4.80
2015,11,18,12,24,11.30
2015,11,18,12,25,9.60
2015,11,18,12,26,16.10
2015,11,18,12,27,11.30
2015,11,18,12,28,14.50
2015,11,18,12,29,16.10
2015,11,18,12,30,9.60
2015,11,18,12,31,11.30
2015,11,18,12,32,9.60
2015,11,18,12,33,9.60
2015,11,18,12,34,4.80
2015,11,18,12,35,9.60
2015,11,18,12,36,3.20
2015,11,18,12,37,3.20
2015,11,18,12,38,1.60
2015,11,18,12,39,4.80
2015,11,18,12,40,1.60
2015,11,18,12,42,3.20
2015,11,18,12,43,1.60
2015,11,18,12,44,1.60
2015,11,18,12,46,4.80
2015,11,18,12,47,3.20
2015,11,18,12,48,1.60
2015,11,18,12,49,1.60
2015,11,18,12,50,1.60
2015,11,18,12,51,1.60
2015,11,18,12,52,3.20
2015,11,18,12,53,6.40
2015,11,18,12,54,3.20
2015,11,18,12,55,1.60
2015,11,18,12,56,1.60
2015,11,18,12,57,1.60
2015,11,18,12,58,1.60
2015,11,18,12,59,3.20
2015,11,18,13,00,1.60
2015,11,18,13,01,3.20
2015,11,18,13,02,3.20
2015,11,18,13,03,4.80
2015,11,18,13,04,1.60
2015,11,18,13,05,4.80
2015,11,18,13,06,1.60
2015,11,18,13,07,8.10
2015,11,18,13,08,6.40
2015,11,18,13,09,6.40
2015,11,18,13,10,1.60
2015,11,18,13,11,1.60
2015,11,18,13,12,6.40
2015,11,18,13,13,6.40
2015,11,18,13,14,6.40
2015,11,18,13,15,4.80
2015,11,18,13,16,12.90
2015,11,18,13,17,9.60
2015,11,18,13,18,9.60
2015,11,18,13,19,4.80
2015,11,18,13,20,4.80
2015,11,18,13,21,4.80
2015,11,18,13,22,6.40
2015,11,18,13,23,1.60
2015,11,18,13,24,3.20
2015,11,18,13,25,4.80
2015,11,18,13,26,3.20
2015,11,18,13,28,6.40
2015,11,18,13,29,8.10
2015,11,18,13,30,3.20
2015,11,18,13,31,3.20
2015,11,18,13,32,1.60
2015,11,18,13,33,1.60
2015,11,18,13,34,6.40
2015,11,18,13,35,9.60
2015,11,18,13,36,4.80
2015,11,18,13,37,8.10
2015,11,18,13,38,9.60
2015,11,18,13,39,9.60
2015,11,18,13,40,3.20
2015,11,18,13,41,8.10
2015,11,18,13,42,9.60
2015,11,18,13,43,8.10
2015,11,18,13,44,6.40
2015,11,18,13,45,12.90
2015,11,18,13,46,8.10
2015,11,18,13,47,3.20
2015,11,18,13,48,8.10
2015,11,18,13,49,4.80
2015,11,18,13,50,4.80
2015,11,18,13,51,3.20
2015,11,18,13,52,4.80
2015,11,18,13,53,8.10
2015,11,18,13,54,12.90
2015,11,18,13,55,12.90
2015,11,18,13,56,12.90
2015,11,18,13,57,19.30
2015,11,18,13,58,14.50
2015,11,18,13,59,12.90
2015,11,18,14,00,12.90
2015,11,18,14,01,12.90
2015,11,18,14,02,9.60
2015,11,18,14,03,9.60
2015,11,18,14,04,6.40
2015,11,18,14,05,4.80
2015,11,18,14,06,6.40
2015,11,18,14,07,11.30
2015,11,18,14,08,4.80
2015,11,18,14,09,4.80
2015,11,18,14,10,3.20
2015,11,18,14,11,6.40
2015,11,18,14,12,6.40
2015,11,18,14,13,1.60
2015,11,18,14,14,1.60
2015,11,18,14,15,3.20
2015,11,18,14,16,3.20
2015,11,18,14,18,1.60
2015,11,18,14,19,3.20
2015,11,18,14,20,3.20
2015,11,18,14,21,3.20
2015,11,18,14,24,1.60
2015,11,18,14,25,1.60
2015,11,18,14,26,1.60
2015,11,18,14,28,1.60
2015,11,18,14,29,3.20
2015,11,18,14,30,1.60
2015,11,18,14,31,1.60
2015,11,18,14,32,1.60
2015,11,18,14,33,6.40
2015,11,18,14,34,4.80
2015,11,18,14,37,1.60
2015,11,18,14,38,3.20
2015,11,18,14,39,3.20
2015,11,18,14,40,1.60
2015,11,18,14,41,4.80
2015,11,18,14,42,3.20
2015,11,18,14,43,3.20
2015,11,18,14,44,3.20
2015,11,18,14,45,3.20
2015,11,18,14,46,1.60
2015,11,18,14,47,3.20
2015,11,18,14,48,6.40
2015,11,18,14,49,4.80
2015,11,18,14,50,6.40
2015,11,18,14,51,3.20
2015,11,18,14,52,3.20
2015,11,18,14,53,4.80
2015,11,18,14,54,6.40
2015,11,18,14,55,3.20
2015,11,18,14,56,6.40
2015,11,18,14,57,1.60
2015,11,18,14,59,3.20
2015,11,18,15,02,3.20
2015,11,18,15,03,3.20
2015,11,18,15,04,3.20
2015,11,18,15,05,3.20
2015,11,18,15,06,4.80
2015,11,18,15,07,3.20
2015,11,18,15,08,3.20
2015,11,18,15,09,3.20
2015,11,18,15,10,3.20
2015,11,18,15,11,4.80
2015,11,18,15,12,6.40
2015,11,18,15,13,3.20
2015,11,18,15,14,4.80
2015,11,18,15,15,1.60
2015,11,18,15,16,6.40
2015,11,18,15,17,4.80
2015,11,18,15,18,1.60
2015,11,18,15,19,4.80
2015,11,18,15,20,3.20
2015,11,18,15,21,6.40
2015,11,18,15,22,3.20
2015,11,18,15,23,4.80
2015,11,18,15,24,4.80
2015,11,18,15,25,6.40
2015,11,18,15,26,4.80
2015,11,18,15,27,4.80
2015,11,18,15,28,6.40
2015,11,18,15,29,6.40
2015,11,18,15,30,4.80
2015,11,18,15,31,6.40
2015,11,18,15,32,6.40
2015,11,18,15,33,4.80
2015,11,18,15,34,4.80
2015,11,18,15,35,6.40
2015,11,18,15,36,6.40
2015,11,18,15,37,8.10
2015,11,18,15,38,6.40
2015,11,18,15,39,6.40
2015,11,18,15,40,4.80
2015,11,18,15,41,3.20
2015,11,18,15,42,6.40
2015,11,18,15,43,6.40
2015,11,18,15,44,6.40
2015,11,18,15,45,8.10
2015,11,18,15,46,4.80
2015,11,18,15,47,4.80
2015,11,18,15,48,3.20
2015,11,18,15,49,6.40
2015,11,18,15,50,4.80
2015,11,18,15,51,8.10
2015,11,18,15,52,6.40
2015,11,18,15,53,4.80
2015,11,18,15,54,3.20
2015,11,18,15,55,6.40
2015,11,18,15,56,4.80
2015,11,18,15,57,3.20
2015,11,18,15,58,3.20
2015,11,18,15,59,3.20
2015,11,18,16,00,1.60
2015,11,18,16,01,1.60
2015,11,18,16,02,3.20
2015,11,18,16,03,1.60
2015,11,18,16,04,1.60
2015,11,18,16,05,1.60
2015,11,18,16,06,1.60
2015,11,18,16,07,1.60
2015,11,18,16,08,3.20
2015,11,18,16,11,1.60
2015,11,18,16,12,3.20
2015,11,18,16,13,4.80
2015,11,18,16,14,1.60
2015,11,18,16,15,3.20
2015,11,18,16,16,1.60
2015,11,18,16,17,4.80
2015,11,18,16,18,3.20
2015,11,18,16,19,3.20
2015,11,18,16,20,3.20
2015,11,18,16,21,3.20
2015,11,18,16,22,3.20
2015,11,18,16,23,3.20
2015,11,18,16,24,4.80
2015,11,18,16,25,1.60
2015,11,18,16,26,3.20
2015,11,18,16,27,3.20
2015,11,18,16,28,3.20
2015,11,18,16,29,3.20
2015,11,18,16,30,4.80
2015,11,18,16,31,4.80
2015,11,18,16,32,4.80
2015,11,18,16,33,4.80
2015,11,18,16,34,3.20
2015,11,18,16,35,4.80
2015,11,18,16,36,4.80
2015,11,18,16,37,1.60
2015,11,18,16,38,3.20
2015,11,18,16,39,3.20
2015,11,18,16,40,3.20
2015,11,18,16,41,3.20
2015,11,18,16,42,3.20
2015,11,18,16,43,3.20
2015,11,18,16,44,3.20
2015,11,18,16,46,1.60
2015,11,18,16,48,1.60
2015,11,18,16,49,3.20
2015,11,18,16,50,1.60
2015,11,18,16,51,1.60
2015,11,18,16,57,1.60
2015,11,18,16,58,1.60
2015,11,18,17,03,1.60
2015,11,18,17,04,1.60
2015,11,18,17,18,1.60
2015,11,18,17,19,1.60
2015,11,18,17,24,1.60
2015,11,18,17,25,1.60
2015,11,18,17,27,1.60
2015,11,18,17,35,1.60
2015,11,18,17,36,1.60
2015,11,18,17,37,1.60
2015,11,18,17,38,1.60
2015,11,18,17,43,1.60
2015,11,18,17,44,1.60
2015,11,18,17,45,1.60
2015,11,18,17,46,1.60
2015,11,18,17,47,1.60
2015,11,18,17,48,1.60
2015,11,18,17,50,1.60
2015,11,18,17,51,1.60
2015,11,18,18,16,1.60
2015,11,18,18,17,3.20
2015,11,18,18,18,3.20
2015,11,18,18,21,1.60
2015,11,18,18,30,1.60
2015,11,18,18,31,1.60
2015,11,18,18,32,1.60
2015,11,18,18,46,1.60
2015,11,18,19,11,1.60
2015,11,18,19,12,1.60
2015,11,18,19,13,1.60
2015,11,18,19,14,1.60
2015,11,18,19,15,1.60
2015,11,18,19,16,1.60
2015,11,18,19,17,1.60
2015,11,18,19,20,1.60
2015,11,18,19,21,1.60
2015,11,18,19,22,1.60
2015,11,18,19,23,1.60
2015,11,18,19,24,1.60
2015,11,18,19,26,1.60
2015,11,18,19,27,1.60
2015,11,18,19,28,3.20
2015,11,18,19,29,1.60
2015,11,18,19,30,1.60
2015,11,18,19,39,1.60
2015,11,18,19,40,1.60
2015,11,18,19,42,1.60
2015,11,18,19,44,1.60
2015,11,18,19,45,1.60
2015,11,18,19,46,1.60
2015,11,18,19,47,1.60
2015,11,18,19,48,1.60
2015,11,18,19,50,1.60
2015,11,18,19,59,1.60
2015,11,18,20,00,1.60
2015,11,18,20,01,1.60
2015,11,18,20,02,1.60
2015,11,18,20,04,1.60
2015,11,18,20,05,1.60
2015,11,18,20,07,1.60
2015,11,18,20,08,1.60
2015,11,18,20,09,1.60
2015,11,18,20,10,1.60
2015,11,18,20,11,1.60
2015,11,18,20,12,3.20
2015,11,18,20,13,1.60
2015,11,18,20,14,3.20
2015,11,18,20,15,1.60
2015,11,18,20,16,1.60
2015,11,18,20,17,1.60
2015,11,18,20,18,1.60
2015,11,18,20,19,1.60
2015,11,18,20,26,1.60
2015,11,18,20,27,1.60
2015,11,18,20,28,1.60
2015,11,18,20,36,1.60
2015,11,18,20,37,1.60
2015,11,18,20,38,1.60
2015,11,18,20,39,1.60
2015,11,18,20,40,1.60
2015,11,18,20,41,1.60
2015,11,18,20,42,1.60